Location: Moscow
(30.9132°N, 94.8252°W)
Time: 07:30:59
(UTC+00:00)

Cosmos 1452 Rocket - Pass Details

Date: 15 November 2025
Orbit: 763 x 770 km, 74.1° (Epoch: 13 December)

Event Time Altitude Azimuth Distance (km) Brightness Sun altitude
Rises 11:24:35 0° 186° (S) 3,211 6.8 -17.6°
Reaches altitude 10° 11:26:58 10° 183° (S) 2,288 6.1 -17.1°
Maximum altitude 11:32:05 63° 103° (ESE) 851 4.0 -16.1°
Drops below altitude 10° 11:37:14 10° 24° (NNE) 2,299 6.1 -15.0°
Sets 11:39:38 0° 21° (NNE) 3,228 6.8 -14.5°
